Location: Caltech
(34.1382°N, 118.1253°W)
Time: 09:15:04
(UTC-07:00)

HO-68 - Visible Passes

Search period start: 22 September 2014 00:00
Search period end: 02 October 2014 00:00
Orbit: 1193 x 1204 km, 100.2° (Epoch: 22 September)

Date Brightness Start Highest point End Pass type
(mag) Time Alt. Az. Time Alt. Az. Time Alt. Az.
22 Sep ? 19:11:35 10° ENE 19:12:21 10° NE 19:13:07 10° NE visible
22 Sep ? 20:57:23 57° ESE 20:58:43 68° ENE 21:05:48 10° N visible
22 Sep ? 22:46:50 18° W 22:46:52 18° W 22:51:34 10° NW visible
23 Sep ? 20:40:22 44° ESE 20:41:55 51° ENE 20:48:46 10° N visible
23 Sep ? 22:29:50 26° W 22:29:50 26° W 22:35:31 10° NW visible
24 Sep ? 20:23:22 34° E 20:25:09 39° ENE 20:31:37 10° N visible
24 Sep ? 22:12:49 35° W 22:12:49 35° W 22:19:10 10° NW visible
25 Sep ? 20:06:21 25° E 20:08:26 29° ENE 20:14:21 10° N visible
25 Sep ? 21:55:49 47° W 21:55:49 47° W 22:02:37 10° NNW visible
26 Sep ? 19:49:21 19° E 19:51:45 22° ENE 19:56:55 10° NNE visible
26 Sep ? 21:38:49 63° WSW 21:38:50 63° WSW 21:45:55 10° NNW visible
27 Sep ? 19:32:21 13° E 19:35:08 17° ENE 19:39:14 10° NNE visible
27 Sep ? 21:21:48 83° SW 21:21:56 83° WSW 21:29:07 10° NNW visible
27 Sep ? 23:11:16 10° W 23:11:16 10° W 23:11:54 10° WNW visible
28 Sep ? 19:16:12 10° ENE 19:18:34 12° NE 19:20:55 10° NE visible
28 Sep ? 21:04:48 75° E 21:05:04 76° ENE 21:12:12 10° N visible
28 Sep ? 22:54:16 16° W 22:54:16 16° W 22:57:26 10° WNW visible
29 Sep ? 20:47:48 56° E 20:48:14 57° ENE 20:55:12 10° N visible
29 Sep ? 22:37:16 22° W 22:37:16 22° W 22:41:36 10° NW visible
30 Sep ? 20:30:48 42° E 20:31:27 43° ENE 20:38:06 10° N visible
30 Sep ? 22:20:15 29° W 22:20:15 29° W 22:25:21 10° NW visible
01 Oct ? 20:13:47 32° E 20:14:43 33° ENE 20:20:53 10° N visible
01 Oct ? 22:03:15 39° WNW 22:03:15 39° WNW 22:08:52 10° NNW visible
